TimeEST,TemperatureF,Dew PointF,Humidity,Sea Level PressureIn,VisibilityMPH,Wind Direction,Wind SpeedMPH,Gust SpeedMPH,PrecipitationIn,Events,Conditions,WindDirDegrees,DateUTC
12:00 AM,69,54,50,29.92,16,North,17.3,,,,Haze,350,2013-10-10 14:00:00
12:00 AM,69.8,55.4,60,29.92,-9999.0,North,17.3,-,N/A,,Clear,350,2013-10-10 14:00:00
12:30 AM,68.0,53.6,60,29.89,-9999.0,NNW,17.3,-,N/A,,Clear,340,2013-10-10 14:30:00
1:00 AM,68,54,51,29.90,,NNW,13.8,,,,,340,2013-10-10 15:00:00
1:00 AM,68.0,53.6,60,29.89,-9999.0,NNW,13.8,-,N/A,,Clear,340,2013-10-10 15:00:00
1:30 AM,68.0,55.4,64,29.86,-9999.0,North,15.0,-,N/A,,Clear,350,2013-10-10 15:30:00
2:00 AM,66.2,55.4,68,29.86,-9999.0,North,13.8,-,N/A,,Clear,350,2013-10-10 16:00:00
2:30 AM,68.0,53.6,60,29.86,-9999.0,North,13.8,-,N/A,,Clear,360,2013-10-10 16:30:00
3:00 AM,67,54,55,29.87,16,North,13.8,,,,Haze,350,2013-10-10 17:00:00
3:00 AM,66.2,55.4,68,29.86,-9999.0,North,13.8,-,N/A,,Clear,350,2013-10-10 17:00:00
3:30 AM,64.4,55.4,73,29.86,-9999.0,North,13.8,-,N/A,,Clear,360,2013-10-10 17:30:00
4:00 AM,65,55,62,29.87,,North,16.1,,,,,0,2013-10-10 18:00:00
4:00 AM,66.2,55.4,68,29.86,-9999.0,North,16.1,-,N/A,,Clear,360,2013-10-10 18:00:00
4:30 AM,66.2,55.4,68,29.86,-9999.0,North,16.1,-,N/A,,Clear,10,2013-10-10 18:30:00
5:00 AM,66.2,55.4,68,29.86,-9999.0,North,16.1,-,N/A,,Clear,360,2013-10-10 19:00:00
5:30 AM,66.2,55.4,68,29.89,-9999.0,North,15.0,-,N/A,,Clear,360,2013-10-10 19:30:00
6:00 AM,67,56,59,29.90,16,North,13.8,,,,Haze,0,2013-10-10 20:00:00
6:00 AM,68.0,55.4,64,29.89,-9999.0,North,13.8,-,N/A,,Clear,360,2013-10-10 20:00:00
6:30 AM,68.0,57.2,68,29.89,-9999.0,North,16.1,-,N/A,,Clear,360,2013-10-10 20:30:00
7:00 AM,70,56,53,29.92,,North,13.8,,,,,350,2013-10-10 21:00:00
7:00 AM,69.8,57.2,64,29.92,-9999.0,North,13.8,-,N/A,,Clear,350,2013-10-10 21:00:00
7:30 AM,71.6,55.4,57,29.92,-9999.0,North,12.7,-,N/A,,Clear,360,2013-10-10 21:30:00
8:00 AM,71.6,55.4,57,29.92,-9999.0,North,11.5,-,N/A,,Clear,360,2013-10-10 22:00:00
8:30 AM,73.4,55.4,53,29.92,-9999.0,North,9.2,-,N/A,,Clear,360,2013-10-10 22:30:00
9:00 AM,75,57,44,29.92,16,North,13.8,,,,,10,2013-10-10 23:00:00
9:00 AM,75.2,57.2,53,29.92,-9999.0,North,13.8,-,N/A,,Clear,10,2013-10-10 23:00:00
9:30 AM,75.2,57.2,53,29.92,-9999.0,North,15.0,-,N/A,,Clear,360,2013-10-10 23:30:00
10:00 AM,77,56,37,29.91,,North,15.0,,,,,10,2013-10-11 00:00:00
10:00 AM,77.0,55.4,47,29.89,-9999.0,North,15.0,-,N/A,,Clear,10,2013-10-11 00:00:00
10:30 AM,77.0,55.4,47,29.86,-9999.0,NNE,13.8,-,N/A,,Clear,20,2013-10-11 00:30:00
11:00 AM,80.6,59.0,48,29.86,-9999.0,North,19.6,-,N/A,,Clear,10,2013-10-11 01:00:00
11:30 AM,80.6,59.0,48,29.83,-9999.0,NNE,20.7,-,N/A,,Clear,20,2013-10-11 01:30:00
12:00 PM,80,61,41,29.84,16,NNE,18.4,,,,Haze,30,2013-10-11 02:00:00
12:00 PM,80.6,60.8,51,29.83,-9999.0,NNE,18.4,-,N/A,,Clear,30,2013-10-11 02:00:00
12:30 PM,80.6,62.6,54,29.83,-9999.0,NE,16.1,-,N/A,,Clear,40,2013-10-11 02:30:00
1:00 PM,81,62,43,29.83,,NE,17.3,,,,,40,2013-10-11 03:00:00
1:00 PM,80.6,62.6,54,29.83,-9999.0,NE,17.3,-,N/A,,Clear,40,2013-10-11 03:00:00
1:30 PM,82.4,62.6,51,29.80,-9999.0,NNE,16.1,-,N/A,,Clear,30,2013-10-11 03:30:00
2:00 PM,80.6,64.4,58,29.80,-9999.0,NNE,17.3,-,N/A,,Clear,30,2013-10-11 04:00:00
2:30 PM,80.6,64.4,58,29.80,-9999.0,NNE,17.3,-,N/A,,Clear,30,2013-10-11 04:30:00
3:00 PM,79,65,55,29.81,16,NNE,19.6,,,,Haze,30,2013-10-11 05:00:00
3:00 PM,78.8,66.2,65,29.80,-9999.0,NNE,19.6,-,N/A,,Clear,30,2013-10-11 05:00:00
3:30 PM,78.8,66.2,65,29.80,-9999.0,NNE,17.3,-,N/A,,Clear,30,2013-10-11 05:30:00
4:00 PM,78.8,66.2,65,29.80,-9999.0,East,9.2,-,N/A,,Clear,90,2013-10-11 06:00:00
4:30 PM,77.0,66.2,69,29.83,-9999.0,ENE,8.1,-,N/A,,Clear,60,2013-10-11 06:30:00
5:00 PM,77.0,66.2,69,29.83,-9999.0,ENE,10.4,-,N/A,,Clear,60,2013-10-11 07:00:00
5:30 PM,75.2,68.0,78,29.86,-9999.0,ESE,5.8,-,N/A,,Clear,110,2013-10-11 07:30:00
6:00 PM,74,68,76,29.88,12,SE,3.5,,,,Haze,130,2013-10-11 08:00:00
6:00 PM,73.4,68.0,83,29.86,-9999.0,SE,3.5,-,N/A,,Clear,130,2013-10-11 08:00:00
6:30 PM,73.4,68.0,83,29.89,-9999.0,ESE,5.8,-,N/A,,Clear,120,2013-10-11 08:30:00
7:00 PM,73,66,74,29.91,,ESE,8.1,,,,,110,2013-10-11 09:00:00
7:00 PM,73.4,66.2,78,29.89,6.2,ESE,8.1,-,N/A,,Partly Cloudy,110,2013-10-11 09:00:00
7:30 PM,73.4,66.2,78,29.92,-9999.0,ESE,11.5,-,N/A,,Clear,120,2013-10-11 09:30:00
8:00 PM,73.4,62.6,69,29.92,-9999.0,ESE,12.7,-,N/A,,Clear,120,2013-10-11 10:00:00
8:30 PM,73.4,66.2,78,29.95,6.2,SE,15.0,-,N/A,,Partly Cloudy,130,2013-10-11 10:30:00
9:00 PM,72,67,80,29.98,5,SE,13.8,,,,Haze,130,2013-10-11 11:00:00
9:00 PM,73.4,68.0,83,29.98,5.0,SE,13.8,25.3,N/A,,Partly Cloudy,130,2013-10-11 11:00:00
9:30 PM,71.6,66.2,83,29.98,5.6,SE,13.8,-,N/A,,Partly Cloudy,140,2013-10-11 11:30:00
10:00 PM,72,66,77,29.99,,SE,12.7,,,,,140,2013-10-11 12:00:00
10:00 PM,71.6,66.2,83,29.98,5.6,SE,12.7,-,N/A,,Partly Cloudy,140,2013-10-11 12:00:00
10:30 PM,71.6,66.2,83,29.98,5.6,SE,10.4,-,N/A,,Partly Cloudy,130,2013-10-11 12:30:00
11:00 PM,71.6,66.2,83,30.01,5.6,SE,15.0,-,N/A,,Mostly Cloudy,130,2013-10-11 13:00:00
11:30 PM,71.6,64.4,78,30.01,6.2,SE,12.7,-,N/A,,Partly Cloudy,130,2013-10-11 13:30:00